Location: New Frontier Mobile Home Park
(32.8448°N, 116.9675°W)
Time: 23:13:02
(UTC+00:00)

deb Chang Zheng 4 - Pass Details

Date: 14 July 2020
Orbit: 603 x 626 km, 98.6° (Epoch: 05 August)

Event Time Altitude Azimuth Distance (km) Brightness Sun altitude
Rises 11:30:48 0° 18° (NNE) 2,869 8.0 -14.9°
Reaches altitude 10° 11:33:01 10° 23° (NNE) 1,964 7.1 -14.5°
Maximum altitude 11:37:12 54° 101° (E) 741 4.2 -13.9°
Drops below altitude 10° 11:41:23 10° 179° (S) 1,966 5.8 -13.2°
Enters shadow 11:42:12 - 181° (S) 2,296 6.1 -13.0°
